Погода в Тромсё

Норвегия     69°39′17″N   18°57′46″E
темп.,
°C
ветер,
м/с
пор.,
м/с
влажн.,
%
обл.,
%
осадки,
мм/ч
давл.,
гПа
погр.,
м
5 марта, пт
пт501:00−6с3580100 1.1 1015498
04:00−5ссз3472100 0.4 1014582
07:00−6юз2285100 0.6 1013215
10:00−5ю6789100 0.6 1011395
13:00−4ю8992100 1.3 1008454
16:00−4ю81294100 1.4 1005549
19:00−4ююз5697100 9.2 1001257
22:00−3зюз2294100 2.1 999161
6 марта, сб
сб601:00−4ю4495100 3.7 996118
04:00−4ссз1297100 2.4 99293
07:00−5ссз7996100 7.1 990563
10:00−7ссз7994100 3.3 991716
13:00−8ссз7984100 5.3 9931008
16:00−8сз5979100 0.5 994525
19:00−6сз91296100 3.1 995806
22:00−4зюз5797100 5.4 998427
7 марта, вс
вс701:00−6св2988100 7.3 1002282
04:00−3св12157276 1.1 10071014
07:00−4св10147982 1.3 1011761
10:00−4св6117834 0.1 1015757
13:00−4ссв357634 0.2 1017754
16:00−5всв116996 0.0 1018339
19:00−5ю457198 0.0 1016385
22:00−6ю81093100 0.9 1015511
8 марта, пн
пн801:00−5ююз5695100 5.3 1013262
04:00−5ююз4496100 3.7 1011180
07:00−4ююз3392100 6.1 1010196
10:00−3юз1291100 1.7 1010208
13:00−3св2286100 1.9 1011354
16:00−5всв2382100 0.1 1011187
19:00−7в2277100 0.1 1011134
22:00−8в3382100 0.0 1012127
9 марта, вт
вт901:00−9вюв338685 0.0 1012108
04:00−11вюв44800 0.0 1012104
07:00−13юв44790 0.0 1012105
10:00−11юв44780 0.0 1012157
13:00−10юв45750 0.0 1012241
16:00−12юв44761 0.0 1011168
19:00−14юв44821 0.0 1011127
22:00−15ююв44871 0.0 1010115